Station NWHC3 - 8465705 - New Haven, CT Image indicating link to RSS feed of recent meteorological observations for station NWHC3


Conditions at NWHC3 as of
(5:30 pm EDT)
2130 GMT on 05/26/2024:
     

Click on the graph icon in the table below to see a time series plot of the last five days of that observation.

5-day plot - Wind Direction Wind Direction (WDIR): S ( 170 deg true )
5-day plot - Wind Speed Wind Speed (WSPD): 8.9 kts
5-day plot - Wind Gust Wind Gust (GST): 12.0 kts
5-day plot - Atmospheric Pressure Atmospheric Pressure (PRES):29.91 in
5-day plot - Air Temperature Air Temperature (ATMP): 74.3 °F
5-day plot - Water Temperature Water Temperature (WTMP): 59.4 °F
5-day plot - Wind Speed at 10 Meters Wind Speed at 10 meters (WSPD10M): 9.7 kts
5-day plot - Wind Speed at 20 Meters Wind Speed at 20 meters (WSPD20M): 9.7 kts
5-day plot -  Wind Speed, Wind Gust and Atmospheric Pressure Combined plot of Wind Speed, Gust, and Air Pressure
NOS Water Level Observation Network Water Level
Previous observations
TIME
(EDT)
5-day plot - Wind Direction
WDIR
 
5-day plot - Wind Speed
WSPD
kts
5-day plot - Wind Gust
GST
kts
5-day plot - Wave Height
WVHT
ft
5-day plot - Dominant Wave Period
DPD
sec
5-day plot - Average Wave Period
APD
sec
5-day plot - Mean Wave Direction
MWD
 
5-day plot - Atmospheric Pressure
PRES
in
5-day plot - Pressure Tendency
PTDY
in
5-day plot - Air Temperature
ATMP
°F
5-day plot - Water Temperature
WTMP
°F
5-day plot - Dew Point
DEWP
°F
5-day plot - Salinity
SAL
psu
5-day plot - Visibility
VIS
nmi
5-day plot - Tide (above MLLW)
TIDE
ft
2024-05-26 05:24 pm S 8.0 11.1----29.92- 74.5 59.2----
2024-05-26 05:18 pm S 8.9 12.0----29.91- 74.5 59.2----
2024-05-26 05:12 pmSSE 7.0 11.1----29.91- 74.7 59.2----
2024-05-26 05:06 pmSSE 8.9 11.1----29.91- 74.5 59.2----
2024-05-26 05:00 pm-------29.92- 74.3 59.0----
2024-05-26 04:54 pm-------29.92- 74.7 59.0----
2024-05-26 04:48 pm S 9.9 12.0----29.91- 74.7 59.0----
2024-05-26 04:42 pm S 8.9 13.0----29.91- 75.0 59.0----
2024-05-26 04:36 pm S 8.9 9.9----29.92- 74.5 59.0----
2024-05-26 04:30 pm-------29.92- 74.1 59.0----
2024-05-26 04:24 pm-------29.92- 73.9 59.0----
2024-05-26 04:18 pm S 8.0 11.1----29.92- 73.8 59.0----
2024-05-26 04:12 pm S 7.0 9.9----29.92- 73.9 59.0----
2024-05-26 04:06 pm S 7.0 9.9----29.92- 74.1 59.0----
2024-05-26 04:00 pm S 8.9 8.9----29.92-0.02- 59.0----
2024-05-26 03:54 pmSSE 7.0 9.9----29.92-- 59.0----
2024-05-26 03:48 pm S 7.0 8.0----29.92-- 59.0----
2024-05-26 03:42 pm S 6.0 8.9----29.92-- 59.0----
2024-05-26 03:36 pm S 8.0 11.1----29.92-- 59.0----
2024-05-26 03:30 pm S 7.0 8.9----29.92- 73.6 59.0----
2024-05-26 03:24 pm S 8.0 9.9----29.92- 72.9 59.0----
2024-05-26 03:18 pm S 7.0 8.0----29.92-- 59.0----
2024-05-26 03:12 pm S 7.0 8.9----29.92-- 59.0----
2024-05-26 03:06 pm S 7.0 8.9----29.92-- 59.0----
2024-05-26 03:00 pm S 6.0 8.0----29.92-0.01 73.0 59.0----
2024-05-26 02:54 pmSSW 5.1 7.0----29.92- 73.8 59.0----
2024-05-26 02:48 pm-------29.92- 73.8 59.0----
2024-05-26 02:42 pm-------29.92- 73.2 59.0----
2024-05-26 02:36 pm-------29.92- 73.4 59.0----
2024-05-26 02:30 pm S 6.0 7.0----29.92- 73.0 59.0----
2024-05-26 02:24 pmSSW 6.0 8.0----29.93- 73.4 59.0----
2024-05-26 02:18 pmSSW 7.0 8.0----29.93- 72.9 59.0----
2024-05-26 02:12 pmSSW 7.0 8.0----29.93- 72.9 59.0----
2024-05-26 02:06 pm S 8.0 8.0----29.93- 72.0 59.0----
2024-05-26 02:00 pm S 8.0 8.0------- 59.0----
2024-05-26 01:54 pm S 7.0 8.0------- 59.0----
2024-05-26 01:48 pmSSW 6.0 6.0----29.93- 70.3 59.0----
2024-05-26 01:42 pm S 6.0 6.0----29.93- 69.6 59.2----
2024-05-26 01:36 pmSSW 6.0 6.0----29.94- 69.6 59.4----
2024-05-26 01:30 pmSSW 6.0 7.0----29.94-- 59.5----
2024-05-26 01:24 pmSSW 7.0 7.0----29.94-- 59.7----
2024-05-26 01:18 pmSSW 7.0 8.0----29.95- 68.7 59.9----
2024-05-26 01:12 pmSSW 7.0 7.0----29.94- 68.9 59.9----
2024-05-26 01:06 pmSSW 7.0 7.0----29.94- 69.1 59.9----
2024-05-26 01:00 pmSSW 6.0 6.0----29.94+0.01 68.9 60.1----
2024-05-26 12:54 pmSSW 6.0 6.0----29.94- 68.5 59.9----
2024-05-26 12:48 pmSSW 6.0 6.0----29.94- 68.5 59.9----
2024-05-26 12:42 pmSSW 5.1 6.0----29.94- 68.7 59.9----
2024-05-26 12:36 pmSSW 5.1 6.0----29.94- 68.5 59.9----
2024-05-26 12:30 pmSSW 5.1 7.0----29.94- 68.2 59.9----
2024-05-26 12:24 pmSSW 7.0 7.0----29.94- 67.8 59.9----
2024-05-26 12:18 pmSSW 7.0 7.0----29.94- 67.8 59.9----
2024-05-26 12:12 pmSSW 7.0 7.0----29.94- 67.8 59.9----
2024-05-26 12:06 pm S 7.0 7.0----29.94- 67.8 59.9----
2024-05-26 12:00 pm S 7.0 8.0----29.93+0.00 67.3 60.1----
2024-05-26 11:54 am S 7.0 8.9----29.94- 66.6 60.1----
2024-05-26 11:48 amSSW 8.0 8.0----29.94- 66.4 60.1----
2024-05-26 11:42 amSSW 8.0 8.0----29.94- 66.2 60.1----
2024-05-26 11:36 amSSW 8.0 8.0----29.94- 66.2 60.1----
2024-05-26 11:30 amSSW 6.0 6.0----29.94- 66.4 60.1----
2024-05-26 11:24 amWSW 4.1 5.1----29.94- 66.2 60.1----
2024-05-26 11:18 amWSW 5.1 5.1----29.94- 66.0 60.1----
2024-05-26 11:12 amWSW 4.1 5.1----29.94- 65.8 60.1----
2024-05-26 11:06 am SW 4.1 4.1----29.93- 66.2 60.1----
2024-05-26 11:00 am SW 4.1 5.1----29.93+0.01 66.4 60.1----
2024-05-26 10:54 am SW 4.1 4.1----29.93- 66.9 60.1----
2024-05-26 10:48 am SW 5.1 5.1----29.94- 66.6 60.1----
2024-05-26 10:42 amSSW 2.9 5.1----29.94- 66.6 60.1----
2024-05-26 10:36 am S 2.9 4.1----29.94- 66.9 60.1----
2024-05-26 10:30 amSSW 4.1 5.1----29.94- 66.4 60.1----
2024-05-26 10:24 amSSW 5.1 8.0----29.94- 66.2 60.1----
2024-05-26 10:18 amSSW 7.0 8.0----29.93- 65.8 60.3----
2024-05-26 10:12 amSSW 6.0 7.0----29.93- 66.0 60.4----
2024-05-26 10:06 amSSW 6.0 6.0----29.93- 65.7 60.4----
2024-05-26 10:00 amSSW 5.1 6.0----29.93+0.01 65.1 60.4----
2024-05-26 09:54 amSSW 5.1 6.0----29.93- 64.6 60.4----
2024-05-26 09:48 amSSW 5.1 5.1----29.93- 64.8 60.4----
2024-05-26 09:42 amSSW 2.9 4.1----29.93- 64.6 60.4----
2024-05-26 09:36 am SW 1.9 5.1----29.93- 64.2 60.4----
2024-05-26 09:30 am SW 5.1 5.1----29.93-- 60.6----
2024-05-26 09:24 amSSW 4.1 4.1----29.93-- 60.6----
2024-05-26 09:18 am S 4.1 4.1----29.93-- 60.6----
2024-05-26 09:12 am S 2.9 4.1----29.93-- 60.6----
2024-05-26 09:06 amSSW 5.1 5.1----29.93-- 60.6----
2024-05-26 09:00 amSSW 4.1 5.1----29.93+0.02- 60.6----
2024-05-26 08:54 amSSW 2.9 4.1----29.93-- 60.6----
2024-05-26 08:48 am S 2.9 4.1----29.93- 63.1 60.6----
2024-05-26 08:42 am S 2.9 2.9----29.93- 63.0 61.2----
2024-05-26 08:36 am S 1.9 2.9----29.93- 63.1 61.2----
2024-05-26 08:30 am S 1.0 1.9----29.93- 62.6 61.2----
2024-05-26 08:24 am SW 1.9 2.9----29.93- 62.6 61.2----
2024-05-26 08:18 amSSW 1.9 1.9----29.93- 62.4 61.0----
2024-05-26 08:12 amSSW 1.0 1.9----29.93- 62.2 60.6----
2024-05-26 08:06 am- 0.0 2.9----29.93- 62.2 60.3----
2024-05-26 08:00 am-------29.92+0.04 62.1-----
2024-05-26 07:54 am-------29.92- 61.9-----
2024-05-26 07:48 am SW 1.0 1.9----29.92- 62.1 61.0----
2024-05-26 07:42 am S 1.0 1.9----29.92- 62.1 61.7----
2024-05-26 07:36 am- 0.0 2.9----29.92- 61.7 62.6----
2024-05-26 07:30 amENE 1.9 1.9----29.92- 61.7 62.2----
2024-05-26 07:24 am SE 1.9 1.9----29.91- 61.5 61.7----
2024-05-26 07:18 amSSW 1.0 1.9----29.92-- 61.3----
2024-05-26 07:12 am- 0.0 0.0----29.92-- 60.8----
2024-05-26 07:06 am- 0.0 0.0----29.91-- 60.8----
2024-05-26 07:00 am- 0.0 1.9----29.91+0.02- 60.8----
2024-05-26 06:54 amESE 1.9 1.9----29.91-- 60.8----
2024-05-26 06:48 amSSE 1.0 1.9----29.91-- 60.8----
2024-05-26 06:42 am SE 1.9 2.9----29.91-- 60.6----
2024-05-26 06:36 am- 0.0 4.1----29.91-- 60.6----
2024-05-26 06:30 am SE 2.9 5.1----29.91- 61.2 60.6----
2024-05-26 06:24 am SE 2.9 5.1----29.91- 61.2 60.4----
2024-05-26 06:18 am S 2.9 5.1----29.91-- 60.3----
2024-05-26 06:12 am S 4.1 5.1----29.91-- 60.3----
2024-05-26 06:06 am S 5.1 5.1----29.91-- 60.3----
2024-05-26 06:00 am S 4.1 5.1----29.91+0.03 60.8 60.3----
2024-05-26 05:54 am S 4.1 5.1----29.90- 60.6 60.1----
2024-05-26 05:48 am S 5.1 5.1----29.90- 60.6 60.1----
2024-05-26 05:42 am S 4.1 5.1----29.90- 60.4 59.9----
2024-05-26 05:36 am S 4.1 4.1----29.90- 60.4 59.5----
2024-05-26 05:30 am S 2.9 4.1----29.89- 60.4 59.4----
2024-05-26 05:24 amSSE 4.1 5.1----29.89- 60.4 59.2----
2024-05-26 05:18 amSSE 4.1 5.1----29.89- 60.4 59.2----
2024-05-26 05:12 am S 2.9 4.1----29.89- 60.4 59.0----
2024-05-26 05:06 am S 2.9 4.1----29.89- 60.4 59.0----
2024-05-26 05:00 amSSE 2.9 4.1----29.88+0.00 60.4 59.0----
2024-05-26 04:54 am S 1.9 2.9----29.88- 60.4 59.0----
2024-05-26 04:48 amSSE 2.9 5.1----29.88-- 58.8----
2024-05-26 04:42 amSSE 4.1 5.1----29.88-- 58.8----
2024-05-26 04:36 am SE 1.9 4.1----29.88-- 58.8----
2024-05-26 04:30 am SE 4.1 8.0----29.88- 60.6 58.6----
2024-05-26 04:24 am SE 1.9 5.1----29.88- 61.0 58.6----
2024-05-26 04:18 amESE 1.9 2.9----29.89- 61.2 58.6----
2024-05-26 04:12 amESE 1.0 2.9----29.90- 60.8 58.6----
2024-05-26 04:06 amSSE 1.9 2.9----29.89- 60.8 58.6----
2024-05-26 04:00 amSSE 1.9 2.9----29.89+0.01 61.0 58.8----
2024-05-26 03:54 am SE 1.9 5.1----29.89- 61.0 58.8----
2024-05-26 03:48 amSSE 2.9 5.1----29.89- 60.8 58.6----
2024-05-26 03:42 am S 2.9 5.1----29.89- 61.2 58.5----
2024-05-26 03:36 am S 4.1 5.1----29.89- 61.2 58.3----
2024-05-26 03:30 amSSE 2.9 4.1----29.89- 61.2 58.3----
2024-05-26 03:24 am S 2.9 4.1----29.89- 61.2 58.3----
2024-05-26 03:18 am S 2.9 4.1----29.88- 61.2 58.3----
2024-05-26 03:12 amSSE 1.0 2.9----29.89- 61.2 58.3----
2024-05-26 03:06 am SE 1.9 2.9----29.88- 61.2 58.3----
2024-05-26 03:00 am S 1.9 2.9----29.88-0.01 61.2 58.3----
2024-05-26 02:54 amESE 1.9 2.9----29.88- 61.3 58.3----
2024-05-26 02:48 am S 1.9 1.9----29.88- 61.3 58.5----
2024-05-26 02:42 am- 0.0 2.9----29.88- 61.3 58.5----
2024-05-26 02:36 am E 2.9 4.1----29.88- 61.3 58.5----
2024-05-26 02:30 amESE 1.9 2.9----29.87- 61.3 58.5----
2024-05-26 02:24 am S 1.9 2.9----29.88- 61.3 58.5----
2024-05-26 02:18 amSSE 2.9 4.1----29.87- 61.3 58.6----
2024-05-26 02:12 am S 1.9 4.1----29.88- 61.3 58.6----
2024-05-26 02:06 am S 2.9 2.9----29.88- 61.3 58.6----
2024-05-26 02:00 amSSE 1.0 4.1----29.88-0.02 61.3 58.6----
2024-05-26 01:54 amSSE 2.9 4.1----29.87- 61.3 58.6----
2024-05-26 01:48 amSSE 1.9 2.9----29.87- 61.5 58.6----
2024-05-26 01:42 amSSE 1.9 4.1----29.87- 61.5 58.8----
2024-05-26 01:36 amSSE 2.9 5.1----29.87- 61.5 58.8----
2024-05-26 01:30 amSSE 4.1 5.1----29.88- 61.5 58.8----
2024-05-26 01:24 am SE 2.9 5.1----29.88- 61.7 58.8----
2024-05-26 01:18 am SE 2.9 4.1----29.88- 61.7 58.8----
2024-05-26 01:12 am SE 1.9 5.1----29.88- 61.9 58.8----
2024-05-26 01:06 am SE 2.9 5.1----29.88- 61.7 58.8----
2024-05-26 01:00 amSSE 4.1 5.1----29.88-0.01 61.9 59.0----
2024-05-26 12:54 am SE 2.9 2.9----29.88- 61.9 59.0----
2024-05-26 12:48 amSSE 2.9 4.1----29.88- 62.1 59.0----
2024-05-26 12:42 am S 2.9 5.1----29.89- 62.2 59.0----
2024-05-26 12:36 am S 1.9 4.1----29.89- 62.2 59.0----
2024-05-26 12:30 am S 1.9 4.1----29.89- 62.2 59.2----
2024-05-26 12:24 amSSE 1.9 2.9----29.89- 62.4 59.2----
2024-05-26 12:18 am- 0.0 1.9----29.89- 62.4 59.4----
2024-05-26 12:12 am S 1.9 1.9----29.89- 62.6 59.4----
2024-05-26 12:06 am S 1.9 2.9----29.89- 62.8 59.4----
2024-05-26 12:00 am S 2.9 4.1----29.89+0.01 62.8 59.5----
2024-05-25 11:54 pm S 2.9 4.1----29.89- 62.8 59.9----
2024-05-25 11:48 pm S 2.9 5.1----29.89- 62.6 60.1----
2024-05-25 11:42 pmSSE 5.1 5.1----29.89- 62.8 60.3----
2024-05-25 11:36 pm S 4.1 5.1----29.89- 62.8 60.4----
2024-05-25 11:30 pmSSE 4.1 4.1----29.89- 62.8 60.4----
2024-05-25 11:24 pmSSE 1.9 4.1----29.90- 63.0 60.8----
2024-05-25 11:18 pm SE 1.0 1.9----29.90- 63.0 60.8----
2024-05-25 11:12 pm SE 1.9 2.9----29.90- 62.8 60.8----
2024-05-25 11:06 pmSSE 1.9 2.9----29.89- 62.8 60.8----
2024-05-25 11:00 pm- 0.0 1.9----29.90+0.03 62.8 61.0----
2024-05-25 10:54 pm SE 1.9 4.1----29.89- 63.0 61.0----
2024-05-25 10:48 pm SE 1.9 1.9----29.89- 63.0 61.0----
2024-05-25 10:42 pm- 0.0 2.9----29.89- 63.0 61.0----
2024-05-25 10:36 pmSSE 1.9 4.1----29.89- 63.0 61.0----
2024-05-25 10:30 pmSSE 2.9 5.1----29.89- 63.1 61.0----
2024-05-25 10:24 pm SE 2.9 4.1----29.89- 63.1 61.0----
2024-05-25 10:18 pmSSE 1.9 5.1----29.89- 63.1 61.0----
2024-05-25 10:12 pmSSE 2.9 5.1----29.89- 63.5 61.0----
2024-05-25 10:06 pm SE 1.9 4.1----29.89- 63.7 61.0----
2024-05-25 10:00 pmSSE 2.9 4.1----29.89+0.03 63.7 61.2----
2024-05-25 09:54 pmSSE 1.9 2.9----29.89- 63.9 61.3----
2024-05-25 09:48 pmESE 1.9 4.1----29.89- 63.9 61.5----
2024-05-25 09:42 pm SE 2.9 4.1----29.89- 64.0 61.5----
2024-05-25 09:36 pmESE 2.9 4.1----29.89- 64.2 61.7----
2024-05-25 09:30 pmESE 4.1 4.1----29.89- 64.4 61.9----
2024-05-25 09:24 pmESE 2.9 5.1----29.89- 64.8 61.9----
2024-05-25 09:18 pmSSE 2.9 5.1----29.89- 64.9 61.9----
2024-05-25 09:12 pmSSE 4.1 6.0----29.89- 64.9 62.1----
2024-05-25 09:06 pmSSE 5.1 7.0----29.89- 64.8 62.1----
2024-05-25 09:00 pm SE 5.1 8.9----29.88- 64.9 62.2----
2024-05-25 08:54 pmSSE 4.1 7.0----29.88- 64.8 62.2----
2024-05-25 08:48 pm SE 7.0 8.9----29.88- 65.3 62.4----
2024-05-25 08:42 pmESE 7.0 8.9----29.88- 65.3 62.8----
2024-05-25 08:36 pm SE 6.0 9.9----29.87- 65.3 63.3----
2024-05-25 08:30 pmSSE 7.0 8.9----29.87- 65.5 64.0----
2024-05-25 08:24 pm SE 6.0 9.9----29.87- 65.5 64.9----
2024-05-25 08:18 pm SE 6.0 8.0----29.87- 65.5 65.1----
2024-05-25 08:12 pm SE 5.1 9.9----29.87- 65.5 65.5----
2024-05-25 08:06 pm SE 5.1 9.9----29.87- 65.7 65.5----
2024-05-25 08:00 pm SE 5.1 9.9----29.87-0.01 65.8 65.1----
2024-05-25 07:54 pm SE 7.0 9.9----29.86- 66.0 64.9----
2024-05-25 07:48 pm-------29.86- 66.4 64.0----
2024-05-25 07:42 pm-------29.86- 66.4 64.6----
2024-05-25 07:36 pm-------29.86- 66.6 65.7----
2024-05-25 07:30 pm SE 6.0 9.9----29.86-- 65.7----
2024-05-25 07:24 pm SE 6.0 9.9----29.86-- 65.7----
2024-05-25 07:00 pm SE 8.0 11.1----29.86-0.01 68.5 64.8----
2024-05-25 06:54 pm SE 7.0 9.9----29.87- 68.7 64.8----
2024-05-25 06:48 pm SE 7.0 11.1----29.87-- 64.6----
2024-05-25 06:42 pm SE 7.0 11.1----29.86-- 64.4----
2024-05-25 06:36 pm SE 8.9 12.0----29.86-- 64.2----
2024-05-25 06:30 pm SE 8.9 12.0----29.86- 69.1 64.2----
2024-05-25 06:24 pm SE 8.0 13.0----29.87- 69.3 64.4----
2024-05-25 06:18 pm SE 8.0 11.1----29.87- 69.4 64.6----
2024-05-25 06:12 pm SE 9.9 12.0----29.87- 69.3 64.2----
2024-05-25 06:06 pmSSE 8.0 11.1----29.87- 69.3 63.9----
2024-05-25 06:00 pm SE 6.0 9.9------ 69.4 63.5----
2024-05-25 05:54 pm SE 6.0 11.1------ 69.1 63.0----